QIANFAN-55

Satellite information

Favourite Embed

Satellite Type and Status

PAYLOADIN ORBIT

Key statistics

Satellite QIANFAN-55 at a glance.

Uptime

229

Days in orbit

Revolutions

≈ 13.5

Per day

Orbit

LEO

Low Earth Orbit

Inclination

89.0

Latest

Satellite identification and parameters

Extended collection of information and parameters for QIANFAN-55.

Object identification

Identified? True

Debris? False

Object name: QIANFAN-55

International designator: 2025-016A

Object number (NORAD): 62785

Object ID (CCSDS): 62785

Country: PEOPLES REPUBLIC OF CHINA (PRC)

Current information (Y/N): Y

RCS size: LARGE

Orbital parameters

Period: 106.591 minutes

Inclination: 88.9788 deg

SMA: 7446.852 km

Apoapsis: 1080.238 km

Periapsis: 1057.197 km

RAAN: 113.1066 deg

Eccentricy: 0.00154697

Argument of periapsis: 266.4702 deg

Mean anomaly: 93.468 deg

Mean motion: 13.50963569 rev/day

Mean motion (dot): 0.0000011 rev/day2

B* drag term: 0.00015168063 1/REarth

Two-line elements (TLE)

Creation date: Sept. 8, 2025, 3:16 a.m.

Reference frame: TEME

Reference center: EARTH

Epoch: Sept. 7, 2025, 10:27 p.m. UTC

TLE line 0: 0 QIANFAN-55

TLE line 1: 1 62785U 25016A 25250.93596139 .00000110 00000-0 15168-3 0 9997

TLE line 2: 2 62785 88.9788 113.1066 0015470 266.4702 93.4680 13.50963569 34251

Live tracking on map

Real-time ground track for satellite QIANFAN-55.

In-orbit conjunctions

There are no conjunctions computed for QIANFAN-55, at the moment. Check back to stay up to date, as we update our databases every day.

Go to all conjunctions

Associated space launch

18 Low Earth Orbit communication satellites with Ku, Q and V band payloads for the G60 constellation operated by Shanghai Spacecom Satellite Technology (SSST) with funding backed by the Shanghai local government. Initial constellation will consist of 1296 satellites by 2027 with long term plans to expand it to 12000 satellites.

QIANFAN-55 was lifted into orbit during the mission ‘Long March 6A | G60 Polar Group 06’, on board a Long March 6A space rocket.

The launch took place on Jan. 23, 2025, 5:15 a.m. from Launch Complex 9A.

For more information about the launch, click the button.

Launch to space Long March 6A | G60 Polar Group 06
Long March 6A | G60 Polar Group 06

Agency: N/A

Status: Launch Successful

Launch date: Jan. 23, 2025, 5:15 a.m. UTC

Rocket: Long March 6A

Launch pad: Launch Complex 9A

Location: Taiyuan Satellite Launch Center, People's Republic of China

...

Latest news about this satellite

News about space launch
China launches fourth batch of Thousand Sails megaconstellation satellites

HELSINKI — China launched the fourth batch of 18 satellites for the Thousand Sails megaconstellation early Thursday using a Long March 6A rocket. The Long March 6A lifted off at […] The post China launches fourth batch of Thousand Sails megaconstellation...


Newsletter sign-up

Weekly statistics, charts and insights to help you stay on top of the space industry.